When you browse on this site, cookies collect data to enhance your experience and personalize the content and advertising you see.
Visit our Privacy Policy to learn more. By continuing to use the site, you agree to this use of cookies and data.
  • In Hungary
  • List of Countries
  • For 7 days
  • Water Temperature
  • Weather Map
  • News
  • Weather Widgets
  • user-avatar
    Login

    Hourly Weather Zwevegem

    Today, 8 December, Sunday

    Time Temperature Precipitation Wind Pressure Humidity
    00:00 +5°C° 0 mm 6 mps 755 mmHg 86%
    01:00 +5°C° 0 mm 7 mps 754 mmHg 87%
    02:00 +6°C° 0 mm 8 mps 753 mmHg 87%
    03:00 +6°C° 0 mm 9 mps 752 mmHg 87%
    04:00 +6°C° 0.6 mm 9 mps 751 mmHg 87%
    05:00 +7°C° 0.6 mm 9 mps 751 mmHg 87%
    06:00 +7°C° 0.6 mm 9 mps 750 mmHg 88%
    07:00 +8°C° 0.4 mm 9 mps 750 mmHg 87%
    08:00 +10°C° 0.4 mm 9 mps 749 mmHg 87%
    09:00 +10°C° 0.4 mm 9 mps 749 mmHg 87%
    10:00 +10°C° 0.1 mm 9 mps 749 mmHg 80%
    11:00 +10°C° 0.1 mm 8 mps 749 mmHg 73%
    12:00 +10°C° 0.1 mm 8 mps 750 mmHg 67%
    13:00 +9°C° 0 mm 8 mps 749 mmHg 67%
    14:00 +9°C° 0 mm 7 mps 749 mmHg 67%
    15:00 +9°C° 0 mm 7 mps 749 mmHg 68%
    16:00 +8°C° 0.5 mm 7 mps 749 mmHg 71%
    17:00 +6°C° 0.5 mm 7 mps 748 mmHg 73%
    18:00 +6°C° 0.5 mm 7 mps 748 mmHg 76%
    19:00 +6°C° 0.1 mm 7 mps 748 mmHg 76%
    20:00 +5°C° 0.1 mm 7 mps 747 mmHg 76%
    21:00 +5°C° 0.1 mm 7 mps 747 mmHg 76%
    22:00 +5°C° 0.1 mm 8 mps 746 mmHg 77%
    23:00 +5°C° 0.1 mm 9 mps 745 mmHg 78%

    Tomorrow, 9 December, Monday

    Time Temperature Precipitation Wind Pressure Humidity
    00:00 +5°C° 0.1 mm 10 mps 744 mmHg 78%
    01:00 +5°C° 0.6 mm 10 mps 743 mmHg 75%
    02:00 +6°C° 0.6 mm 10 mps 742 mmHg 71%
    03:00 +6°C° 0.6 mm 10 mps 742 mmHg 68%
    04:00 +6°C° 0.3 mm 9 mps 742 mmHg 72%
    05:00 +6°C° 0.3 mm 8 mps 743 mmHg 77%
    06:00 +5°C° 0.3 mm 7 mps 743 mmHg 81%
    07:00 +5°C° 0.2 mm 8 mps 744 mmHg 79%
    08:00 +5°C° 0.2 mm 9 mps 745 mmHg 76%
    09:00 +5°C° 0.2 mm 10 mps 746 mmHg 73%
    10:00 +4°C° 0.2 mm 11 mps 748 mmHg 73%
    11:00 +4°C° 0.2 mm 11 mps 749 mmHg 73%
    12:00 +4°C° 0.2 mm 12 mps 751 mmHg 72%
    13:00 +4°C° 0.1 mm 11 mps 752 mmHg 69%
    14:00 +5°C° 0.1 mm 10 mps 754 mmHg 66%
    15:00 +5°C° 0.1 mm 9 mps 756 mmHg 62%
    16:00 +4°C° 0 mm 8 mps 757 mmHg 64%
    17:00 +4°C° 0 mm 7 mps 759 mmHg 65%
    18:00 +3°C° 0 mm 7 mps 761 mmHg 67%
    19:00 +3°C° 0 mm 6 mps 761 mmHg 67%
    20:00 +2°C° 0 mm 5 mps 762 mmHg 68%
    21:00 +2°C° 0 mm 5 mps 763 mmHg 69%
    22:00 +3°C° 0 mm 4 mps 764 mmHg 71%
    23:00 +2°C° 0 mm 3 mps 765 mmHg 73%

    Day after tomorrow, 10 December, Tuesday

    Time Temperature Precipitation Wind Pressure Humidity
    00:00 +2°C° 0 mm 3 mps 765 mmHg 75%
    01:00 +1°C° 0 mm 3 mps 765 mmHg 76%
    02:00 +2°C° 0 mm 2 mps 765 mmHg 76%
    03:00 +2°C° 0 mm 2 mps 766 mmHg 76%
    04:00 +1°C° 0 mm 3 mps 766 mmHg 76%
    05:00 0°C° 0 mm 3 mps 766 mmHg 76%
    06:00 0°C° 0 mm 3 mps 766 mmHg 76%
    07:00 0°C° 0 mm 4 mps 766 mmHg 77%
    08:00 0°C° 0 mm 4 mps 765 mmHg 78%
    09:00 +1°C° 0 mm 5 mps 765 mmHg 79%
    10:00 +2°C° 0 mm 6 mps 764 mmHg 77%
    11:00 +3°C° 0 mm 6 mps 764 mmHg 74%
    12:00 +4°C° 0 mm 7 mps 763 mmHg 72%
    13:00 +4°C° 0 mm 7 mps 762 mmHg 72%
    14:00 +4°C° 0 mm 7 mps 761 mmHg 73%
    15:00 +4°C° 0 mm 8 mps 760 mmHg 74%
    16:00 +4°C° 0 mm 8 mps 760 mmHg 74%
    17:00 +3°C° 0 mm 9 mps 759 mmHg 74%
    18:00 +3°C° 0 mm 9 mps 758 mmHg 74%
    19:00 +3°C° 0.2 mm 9 mps 757 mmHg 77%
    20:00 +3°C° 0.2 mm 10 mps 757 mmHg 80%
    21:00 +3°C° 0.2 mm 10 mps 756 mmHg 82%
    22:00 +3°C° 0.2 mm 9 mps 756 mmHg 84%
    23:00 +5°C° 0.2 mm 9 mps 756 mmHg 85%

    11 December, Wednesday

    Time Temperature Precipitation Wind Pressure Humidity
    00:00 +5°C° 0.2 mm 8 mps 756 mmHg 86%
    01:00 +5°C° 0.5 mm 6 mps 756 mmHg 88%
    02:00 +6°C° 0.5 mm 4 mps 755 mmHg 89%
    03:00 +6°C° 0.5 mm 2 mps 755 mmHg 90%
    04:00 +6°C° 0.3 mm 2 mps 755 mmHg 89%
    05:00 +6°C° 0.3 mm 2 mps 755 mmHg 87%
    06:00 +6°C° 0.3 mm 2 mps 755 mmHg 86%
    07:00 +6°C° 0 mm 2 mps 754 mmHg 85%
    08:00 +5°C° 0 mm 3 mps 754 mmHg 85%
    09:00 +4°C° 0 mm 3 mps 754 mmHg 84%
    10:00 +5°C° 0 mm 4 mps 753 mmHg 81%
    11:00 +6°C° 0 mm 4 mps 753 mmHg 77%
    12:00 +6°C° 0 mm 5 mps 752 mmHg 74%
    13:00 +6°C° 0.1 mm 5 mps 752 mmHg 74%
    14:00 +6°C° 0.1 mm 5 mps 751 mmHg 75%
    15:00 +6°C° 0.1 mm 5 mps 751 mmHg 75%
    16:00 +5°C° 0.9 mm 6 mps 750 mmHg 78%
    17:00 +4°C° 0.9 mm 7 mps 749 mmHg 82%
    18:00 +3°C° 0.9 mm 7 mps 749 mmHg 85%
    19:00 +3°C° 0.9 mm 7 mps 749 mmHg 84%
    20:00 +3°C° 0.9 mm 6 mps 749 mmHg 82%
    21:00 +3°C° 0.9 mm 5 mps 749 mmHg 81%
    22:00 +2°C° 0 mm 5 mps 750 mmHg 79%
    23:00 +2°C° 0 mm 5 mps 750 mmHg 78%

    12 December, Thursday

    Time Temperature Precipitation Wind Pressure Humidity
    00:00 +3°C° 0 mm 4 mps 751 mmHg 76%
    01:00 +1°C° 0 mm 4 mps 751 mmHg 77%
    02:00 +1°C° 0 mm 5 mps 751 mmHg 78%
    03:00 +1°C° 0 mm 5 mps 752 mmHg 79%
    04:00 +1°C° 0 mm 4 mps 752 mmHg 79%
    05:00 +1°C° 0 mm 4 mps 752 mmHg 79%
    06:00 0°C° 0 mm 4 mps 752 mmHg 80%
    07:00 +1°C° 0 mm 5 mps 752 mmHg 80%
    08:00 +1°C° 0 mm 6 mps 752 mmHg 80%
    09:00 +2°C° 0 mm 7 mps 752 mmHg 80%
    10:00 +2°C° 0 mm 8 mps 751 mmHg 77%
    11:00 +2°C° 0 mm 9 mps 750 mmHg 75%
    12:00 +3°C° 0 mm 10 mps 749 mmHg 73%
    13:00 +3°C° 0.2 mm 10 mps 747 mmHg 77%
    14:00 +3°C° 0.2 mm 11 mps 745 mmHg 80%
    15:00 +3°C° 0.2 mm 12 mps 744 mmHg 83%
    16:00 +4°C° 1.4 mm 12 mps 742 mmHg 84%
    17:00 +5°C° 1.4 mm 12 mps 740 mmHg 84%
    18:00 +5°C° 1.4 mm 12 mps 739 mmHg 85%
    19:00 +7°C° 0.7 mm 11 mps 737 mmHg 86%
    20:00 +8°C° 0.7 mm 11 mps 736 mmHg 86%
    21:00 +8°C° 0.7 mm 11 mps 734 mmHg 87%
    22:00 +8°C° 4.1 mm 11 mps 733 mmHg 84%
    23:00 +8°C° 4.1 mm 12 mps 732 mmHg 81%

    13 December, Friday

    Time Temperature Precipitation Wind Pressure Humidity
    00:00 +9°C° 4.1 mm 12 mps 731 mmHg 79%
    01:00 +8°C° 0.1 mm 11 mps 732 mmHg 75%
    02:00 +7°C° 0.1 mm 10 mps 732 mmHg 71%
    03:00 +6°C° 0.1 mm 9 mps 733 mmHg 68%
    04:00 +5°C° 0 mm 9 mps 733 mmHg 67%
    05:00 +5°C° 0 mm 8 mps 734 mmHg 66%
    06:00 +4°C° 0 mm 8 mps 734 mmHg 66%
    07:00 +4°C° 0 mm 8 mps 735 mmHg 65%
    08:00 +3°C° 0 mm 9 mps 736 mmHg 64%
    09:00 +3°C° 0 mm 9 mps 736 mmHg 63%
    10:00 +5°C° 0 mm 10 mps 737 mmHg 60%
    11:00 +5°C° 0 mm 10 mps 738 mmHg 58%
    12:00 +6°C° 0 mm 11 mps 738 mmHg 55%
    13:00 +6°C° 0 mm 10 mps 739 mmHg 57%
    14:00 +5°C° 0 mm 9 mps 739 mmHg 59%
    15:00 +5°C° 0 mm 8 mps 740 mmHg 61%
    16:00 +5°C° 0 mm 8 mps 741 mmHg 64%
    17:00 +4°C° 0 mm 7 mps 741 mmHg 66%
    18:00 +4°C° 0 mm 6 mps 742 mmHg 68%
    19:00 +4°C° 0 mm 6 mps 742 mmHg 70%
    20:00 +5°C° 0 mm 5 mps 742 mmHg 73%
    21:00 +5°C° 0 mm 5 mps 743 mmHg 75%
    22:00 +5°C° 0 mm 5 mps 742 mmHg 77%
    23:00 +5°C° 0 mm 5 mps 742 mmHg 79%
    Show more